{"data":{"norad_id":52669,"epoch":"2026-05-24T08:37:38.157024Z","epoch_age_seconds":137227,"freshness":"FRESH","line1":"1 52669U 22053P   26144.35946941 -.00004461  00000+0 -26227-3 0  9996","line2":"2 52669  53.2135 174.4267 0001165  64.7384 295.3729 15.08856034222468","mean_motion":15.08856034,"eccentricity":0.0001165,"inclination_deg":53.2135,"raan_deg":174.4267,"arg_perigee_deg":64.7384,"mean_anomaly_deg":295.3729,"bstar":-0.00026227,"rev_number":22246,"period_min":95.43654050165,"perigee_km":538.88845251885,"apogee_km":540.50030723036,"semimajor_km":6917.8313798746,"source":"CELESTRAK","updated_at":"2026-05-25T13:38:17.231962Z"}}